TimeCST,TemperatureF,Dew PointF,Humidity,Sea Level PressureIn,VisibilityMPH,Wind Direction,Wind SpeedMPH,Gust SpeedMPH,PrecipitationIn,Events,Conditions,WindDirDegrees,DateUTC
12:15 AM,34.7,19.0,53,30.08,10.0,South,6.9,-,N/A,,Clear,180,2014-02-15 06:15:00
12:35 AM,34.9,19.0,52,30.09,10.0,South,6.9,-,N/A,,Clear,180,2014-02-15 06:35:00
12:55 AM,33.4,19.2,56,30.08,10.0,South,9.2,-,N/A,,Clear,180,2014-02-15 06:55:00
1:15 AM,33.8,19.0,55,30.07,10.0,South,6.9,-,N/A,,Clear,180,2014-02-15 07:15:00
1:35 AM,32.9,18.7,56,30.07,10.0,South,6.9,-,N/A,,Clear,180,2014-02-15 07:35:00
1:55 AM,32.0,19.0,59,30.07,10.0,South,9.2,-,N/A,,Clear,190,2014-02-15 07:55:00
2:15 AM,34.3,19.0,54,30.06,10.0,SSW,8.1,-,N/A,,Clear,200,2014-02-15 08:15:00
2:35 AM,32.7,19.4,58,30.06,10.0,South,6.9,-,N/A,,Clear,190,2014-02-15 08:35:00
2:55 AM,32.5,19.8,59,30.05,10.0,South,5.8,-,N/A,,Clear,180,2014-02-15 08:55:00
3:15 AM,32.2,19.8,60,30.05,10.0,SSW,6.9,-,N/A,,Clear,200,2014-02-15 09:15:00
3:35 AM,33.8,20.1,57,30.04,10.0,SSW,8.1,-,N/A,,Clear,210,2014-02-15 09:35:00
3:55 AM,35.1,20.8,56,30.04,10.0,SW,9.2,-,N/A,,Clear,220,2014-02-15 09:55:00
4:15 AM,36.3,21.7,56,30.02,10.0,SSW,11.5,-,N/A,,Clear,210,2014-02-15 10:15:00
4:35 AM,37.4,22.1,54,30.02,10.0,SW,11.5,-,N/A,,Clear,220,2014-02-15 10:35:00
4:55 AM,37.9,22.6,54,30.02,10.0,SSW,9.2,-,N/A,,Clear,210,2014-02-15 10:55:00
5:15 AM,37.4,23.0,56,30.02,10.0,SSW,8.1,-,N/A,,Clear,200,2014-02-15 11:15:00
5:35 AM,37.8,23.5,57,30.01,10.0,SSW,11.5,-,N/A,,Clear,200,2014-02-15 11:35:00
5:55 AM,38.7,23.7,55,30.01,10.0,SSW,9.2,-,N/A,,Clear,200,2014-02-15 11:55:00
6:15 AM,37.6,23.9,58,30.00,10.0,SSW,8.1,-,N/A,,Clear,200,2014-02-15 12:15:00
6:35 AM,37.4,23.9,58,30.00,10.0,SSW,9.2,-,N/A,,Clear,200,2014-02-15 12:35:00
6:55 AM,37.0,23.9,59,29.99,10.0,SSW,9.2,-,N/A,,Clear,200,2014-02-15 12:55:00
7:15 AM,38.3,24.3,57,29.99,10.0,SSW,10.4,-,N/A,,Clear,210,2014-02-15 13:15:00
7:35 AM,39.2,24.4,56,29.99,10.0,SSW,12.7,-,N/A,,Clear,200,2014-02-15 13:35:00
7:55 AM,39.6,24.8,56,30.00,10.0,SSW,9.2,-,N/A,,Clear,200,2014-02-15 13:55:00
8:15 AM,40.1,25.2,55,30.00,10.0,South,9.2,-,N/A,,Clear,190,2014-02-15 14:15:00
8:35 AM,40.6,25.5,55,30.00,10.0,SSW,10.4,-,N/A,,Clear,200,2014-02-15 14:35:00
8:55 AM,41.7,26.1,54,30.01,10.0,SSW,9.2,-,N/A,,Clear,210,2014-02-15 14:55:00
9:15 AM,42.8,26.2,52,30.01,10.0,SSW,10.4,-,N/A,,Clear,210,2014-02-15 15:15:00
9:35 AM,45.1,27.0,49,30.01,10.0,SSW,9.2,-,N/A,,Clear,210,2014-02-15 15:35:00
9:55 AM,48.2,27.7,45,30.00,10.0,SW,9.2,-,N/A,,Clear,220,2014-02-15 15:55:00
10:15 AM,52.0,28.2,40,30.00,10.0,WSW,11.5,-,N/A,,Clear,240,2014-02-15 16:15:00
10:35 AM,57.4,28.9,34,30.00,10.0,West,13.8,-,N/A,,Clear,260,2014-02-15 16:35:00
10:55 AM,62.2,29.1,29,30.00,10.0,West,12.7,-,N/A,,Clear,270,2014-02-15 16:55:00
11:15 AM,65.1,28.4,25,30.00,10.0,West,13.8,20.7,N/A,,Clear,270,2014-02-15 17:15:00
11:35 AM,68.0,28.6,23,30.00,10.0,West,11.5,-,N/A,,Clear,280,2014-02-15 17:35:00
11:55 AM,70.7,26.6,19,30.00,10.0,West,13.8,-,N/A,,Clear,280,2014-02-15 17:55:00
12:15 PM,72.0,25.7,18,29.99,10.0,West,12.7,-,N/A,,Clear,270,2014-02-15 18:15:00
12:35 PM,73.4,25.3,17,29.99,10.0,West,11.5,-,N/A,,Clear,280,2014-02-15 18:35:00
12:55 PM,74.8,24.4,15,29.98,10.0,West,9.2,-,N/A,,Clear,280,2014-02-15 18:55:00
1:15 PM,76.3,24.4,15,29.96,10.0,West,8.1,-,N/A,,Clear,280,2014-02-15 19:15:00
1:35 PM,77.2,22.6,13,29.95,10.0,West,6.9,-,N/A,,Clear,270,2014-02-15 19:35:00
1:55 PM,78.1,19.4,11,29.95,10.0,West,8.1,-,N/A,,Clear,280,2014-02-15 19:55:00
2:15 PM,78.8,18.9,11,29.95,10.0,WNW,8.1,-,N/A,,Clear,300,2014-02-15 20:15:00
2:35 PM,79.5,18.5,10,29.95,10.0,WNW,6.9,-,N/A,,Clear,300,2014-02-15 20:35:00
2:55 PM,79.5,18.1,10,29.94,10.0,WSW,3.5,-,N/A,,Clear,240,2014-02-15 20:55:00
3:15 PM,79.7,18.1,10,29.94,10.0,West,6.9,-,N/A,,Clear,280,2014-02-15 21:15:00
3:35 PM,79.3,18.7,10,29.93,10.0,WNW,4.6,-,N/A,,Clear,290,2014-02-15 21:35:00
3:55 PM,79.5,18.9,10,29.93,10.0,West,5.8,-,N/A,,Clear,270,2014-02-15 21:55:00
4:15 PM,79.3,19.2,11,29.94,10.0,WSW,3.5,-,N/A,,Clear,250,2014-02-15 22:15:00
4:35 PM,79.0,21.0,12,29.94,10.0,North,-9999.0,-,N/A,,Clear,0,2014-02-15 22:35:00
4:55 PM,77.5,20.8,12,29.94,10.0,WSW,12.7,-,N/A,,Clear,250,2014-02-15 22:55:00
5:15 PM,76.3,21.2,13,29.94,10.0,WSW,8.1,-,N/A,,Clear,240,2014-02-15 23:15:00
5:35 PM,74.8,21.4,14,29.95,10.0,SSW,3.5,-,N/A,,Clear,210,2014-02-15 23:35:00
5:55 PM,72.5,20.1,14,29.94,10.0,South,6.9,-,N/A,,Clear,190,2014-02-15 23:55:00
6:15 PM,68.9,22.5,17,29.94,10.0,South,3.5,-,N/A,,Clear,170,2014-02-16 00:15:00
6:35 PM,65.8,21.9,19,29.95,10.0,NE,3.5,-,N/A,,Clear,50,2014-02-16 00:35:00
6:55 PM,61.7,26.8,27,29.97,10.0,NNE,3.5,-,N/A,,Clear,30,2014-02-16 00:55:00
7:15 PM,55.6,26.2,32,30.00,10.0,NNE,26.5,31.1,N/A,,Clear,30,2014-02-16 01:15:00
7:35 PM,56.8,35.8,45,30.02,10.0,NNE,27.6,33.4,N/A,,Clear,30,2014-02-16 01:35:00
7:55 PM,55.2,36.7,50,30.04,10.0,NE,19.6,26.5,N/A,,Clear,40,2014-02-16 01:55:00
8:15 PM,54.5,36.7,51,30.05,10.0,NE,20.7,-,N/A,,Clear,50,2014-02-16 02:15:00
8:35 PM,52.9,36.5,54,30.05,10.0,NE,18.4,-,N/A,,Clear,50,2014-02-16 02:35:00
8:55 PM,51.8,36.0,55,30.05,10.0,NE,19.6,-,N/A,,Clear,50,2014-02-16 02:55:00
9:15 PM,51.4,35.6,55,30.07,10.0,NE,17.3,-,N/A,,Clear,40,2014-02-16 03:15:00
9:35 PM,51.1,35.2,55,30.07,10.0,NE,16.1,20.7,N/A,,Clear,50,2014-02-16 03:35:00
9:55 PM,50.2,35.1,56,30.07,10.0,North,-9999.0,-,N/A,,Clear,0,2014-02-16 03:55:00
10:15 PM,50.0,34.7,56,30.08,10.0,North,-9999.0,-,N/A,,Clear,0,2014-02-16 04:15:00
10:35 PM,49.5,34.5,56,30.08,10.0,North,-9999.0,-,N/A,,Clear,0,2014-02-16 04:35:00
10:55 PM,47.1,34.0,60,30.09,10.0,North,6.9,-,N/A,,Clear,10,2014-02-16 04:55:00
11:15 PM,44.8,34.0,66,30.10,10.0,North,6.9,-,N/A,,Clear,10,2014-02-16 05:15:00
11:35 PM,43.9,34.0,68,30.09,10.0,North,8.1,-,N/A,,Clear,10,2014-02-16 05:35:00
11:55 PM,44.1,34.0,68,30.09,10.0,NNE,10.4,-,N/A,,Clear,20,2014-02-16 05:55:00